Theta_e
336 331 326 328 333 333 334 334 335 336 337 337 338 339 338 338 337 337 337 334 333 333 333 334 334 333 334 333 333 334 334 335 336 337 338 339 339 339 339 337 335 334 333 334 335 334 333 333 333 332 331 331 331 331 331 331 332 332 331 331 331 331 330 329 327 325 324 324 326 328 329 329 327 327 327 326 324 322 322 322 323 326 326 325 323
335 328 326 331 334 334 334 334 333 333 336 337 338 339 338 338 338 338 336 335 332 331 332 333 333 333 333 332 332 332 332 333 333 334 334 336 337 338 337 335 334 333 332 333 334 333 333 334 334 333 332 331 331 331 331 331 331 330 330 329 330 329 328 326 324 324 325 326 327 328 329 329 327 328 328 327 326 325 325 325 325 327 327 326 324
333 327 329 333 334 334 334 335 333 331 336 337 338 339 338 338 338 337 336 335 331 332 334 333 333 332 332 332 332 332 332 332 331 332 332 333 334 335 335 335 334 333 332 333 333 333 333 332 332 333 332 331 331 331 331 331 331 329 329 329 328 327 327 326 326 326 327 327 327 327 328 328 327 327 328 327 326 324 325 326 326 326 326 325 325
331 327 330 334 334 335 335 334 332 332 336 338 339 338 337 338 338 337 336 333 329 332 334 333 333 331 332 332 331 332 332 332 332 332 332 332 332 332 333 333 333 332 333 332 332 333 333 332 332 331 331 330 330 330 330 331 330 329 329 328 328 327 327 326 326 325 325 325 325 324 325 327 328 327 327 327 326 323 322 325 325 326 325 324 324
329 326 330 333 334 335 335 334 333 335 337 338 339 338 337 338 337 337 335 331 329 332 332 332 332 332 333 332 331 331 330 331 331 331 332 332 331 331 332 331 332 332 332 332 332 332 332 332 332 331 330 329 329 328 329 329 329 329 328 328 327 326 326 325 325 324 323 322 321 321 322 325 327 327 327 327 325 323 323 325 324 324 324 324 324
327 325 329 333 334 335 335 334 335 337 338 339 339 337 338 337 336 336 334 331 332 333 330 328 330 333 333 331 331 331 331 331 331 331 331 331 331 331 331 331 331 332 332 332 332 333 333 333 332 330 328 326 327 328 328 328 329 329 328 327 326 325 324 324 323 322 321 320 320 321 322 323 325 326 326 325 324 323 323 323 323 323 323 325 324
323 324 329 333 334 334 334 334 336 338 339 339 338 337 337 336 336 335 333 332 332 332 331 330 330 332 332 331 331 331 331 331 332 331 331 331 330 330 330 330 331 332 332 332 332 333 333 332 331 329 326 326 327 326 327 328 328 327 326 325 325 324 323 322 321 320 319 319 321 323 324 324 324 325 325 323 323 323 323 322 321 322 324 324 324
322 324 329 333 333 333 334 335 338 339 339 339 338 337 336 335 332 330 330 332 332 331 332 332 332 330 329 331 331 330 331 330 331 330 331 330 330 330 330 330 331 332 331 332 333 332 332 331 329 328 327 327 327 325 326 327 327 326 325 325 324 323 321 320 320 319 319 319 322 324 325 324 325 324 323 322 323 323 322 321 321 322 324 324 323
322 325 329 333 332 333 335 337 339 338 339 338 338 337 336 333 326 323 328 332 332 331 331 332 332 330 329 331 331 330 329 329 329 329 330 330 330 330 330 330 330 331 331 332 332 332 332 330 329 329 328 328 327 326 326 326 326 326 325 324 323 321 320 320 320 319 319 320 322 323 325 325 325 324 323 322 322 322 321 320 322 324 324 323 323
322 327 331 332 333 334 336 338 339 338 339 337 337 336 335 331 325 323 330 332 331 329 329 331 330 330 330 332 332 329 328 329 330 330 330 330 330 329 329 331 330 330 331 331 332 332 331 331 330 329 329 328 326 326 326 325 325 325 324 323 322 321 321 321 320 320 320 320 321 322 323 324 324 324 324 323 321 321 320 320 322 322 322 323 322
324 331 332 333 335 334 336 338 338 338 337 337 337 336 333 331 327 324 330 332 331 329 328 331 330 330 331 331 330 329 330 331 331 329 329 329 329 329 327 329 330 331 331 331 332 331 331 331 329 327 327 326 325 325 325 324 324 323 322 322 321 321 321 321 320 320 320 320 321 321 322 323 324 324 323 322 321 322 320 320 321 320 321 321 320
326 332 333 334 335 334 336 337 337 338 337 337 336 334 332 332 329 324 329 332 331 330 329 331 330 330 330 328 327 328 330 330 330 330 330 329 329 329 327 328 330 330 331 331 331 330 330 329 326 326 326 325 325 324 324 323 323 322 322 321 321 321 321 321 320 320 320 320 320 320 321 322 322 323 323 321 321 323 321 320 320 319 320 320 320
328 333 334 334 335 335 335 335 336 337 337 337 334 333 332 331 330 324 327 331 330 330 331 331 329 331 331 328 327 327 328 328 329 329 329 329 329 329 328 329 329 330 330 329 330 330 329 327 326 326 327 325 324 324 323 323 323 322 322 322 321 321 321 321 320 320 320 320 320 320 320 321 321 322 322 321 320 321 320 320 320 319 319 319 319
328 333 334 334 334 334 333 334 335 335 336 335 334 332 331 330 329 324 325 330 330 329 330 330 329 330 330 327 327 327 328 328 328 328 329 329 329 329 328 329 329 330 330 329 329 329 328 326 326 326 326 325 324 324 323 323 323 322 322 322 322 321 321 321 321 320 320 320 321 321 321 321 321 321 321 320 320 320 319 319 319 319 319 319 318
326 332 333 333 333 333 332 333 333 334 335 334 334 333 332 329 327 325 323 327 330 329 330 330 328 329 329 327 327 327 328 328 329 328 328 328 328 328 327 328 329 329 329 329 328 328 327 326 326 326 325 324 324 324 323 323 323 322 322 322 321 321 321 321 321 321 320 320 320 322 322 321 321 321 320 320 320 320 319 319 319 319 320 319 319
324 331 332 332 332 331 331 332 332 333 334 334 334 333 332 329 328 327 323 325 328 328 330 329 327 328 329 329 327 327 328 328 329 328 328 329 328 327 327 327 328 328 328 328 328 327 327 325 325 325 324 324 323 324 323 323 323 322 322 322 321 321 321 321 321 321 320 320 319 320 320 320 321 321 321 321 321 321 320 319 319 318 318 319 319
321 327 330 331 331 330 329 331 331 332 333 333 334 333 332 330 330 328 323 326 329 328 328 328 328 330 330 329 327 326 327 328 328 328 327 327 327 326 326 327 326 327 327 327 327 327 326 325 325 324 324 324 323 323 323 323 322 322 322 321 321 321 321 321 321 321 321 320 319 319 320 321 321 321 322 322 321 321 320 319 319 318 317 319 319
320 324 326 328 329 329 329 330 330 331 332 332 333 332 332 331 330 328 324 326 329 328 327 327 328 330 329 329 327 324 325 326 327 327 326 325 326 327 327 326 326 326 326 326 326 326 326 325 325 324 324 323 323 323 322 322 322 322 321 321 320 321 321 321 321 321 321 320 319 319 320 321 322 322 323 322 321 320 320 319 319 319 319 319 318
320 322 323 325 326 328 327 327 328 329 330 332 332 332 332 331 330 328 323 324 327 328 327 325 326 328 328 327 327 324 323 323 324 324 323 324 325 326 327 326 326 325 325 325 325 325 325 325 325 324 324 323 322 322 322 322 321 321 320 320 320 321 321 321 321 321 321 320 319 319 319 320 322 323 323 322 322 321 320 320 320 320 320 319 318
321 321 321 322 322 325 324 323 325 325 327 329 331 331 332 330 330 325 320 322 325 327 327 325 325 327 328 326 325 324 323 322 321 320 321 321 321 322 324 325 325 324 324 324 324 324 324 324 324 324 323 322 322 321 321 321 320 320 320 320 320 320 320 321 321 321 321 321 320 319 319 319 321 324 324 323 323 322 321 320 320 320 320 319 318
322 319 319 320 322 324 323 322 324 325 325 326 328 329 330 330 329 322 319 321 323 324 325 327 326 325 327 326 325 324 322 322 320 320 321 321 320 319 320 321 322 321 321 322 322 323 323 322 322 322 321 320 320 319 320 320 320 320 320 321 320 320 320 320 320 320 321 321 321 320 320 320 320 322 324 324 324 323 322 321 321 321 320 319 318
323 320 317 318 322 324 324 325 326 328 327 326 325 326 327 328 326 322 320 319 321 321 321 324 324 323 325 325 324 322 321 321 320 321 321 320 319 318 317 318 317 317 318 318 319 320 320 319 319 319 318 318 318 319 320 320 321 321 321 321 320 320 320 320 320 320 320 320 320 321 321 321 320 321 323 324 324 324 323 322 322 321 321 320 320
323 320 316 316 321 324 324 326 327 327 326 323 323 324 323 323 322 322 320 317 319 321 319 320 321 322 323 323 322 320 319 318 318 319 319 319 319 317 316 316 316 316 317 317 317 317 317 317 317 317 317 318 319 320 320 321 321 321 321 321 320 320 320 320 320 320 320 320 320 320 320 321 321 321 322 323 324 324 323 323 323 323 322 321 321
322 320 317 315 318 320 322 324 326 324 321 319 319 321 322 320 320 321 320 316 317 319 319 319 320 320 320 320 319 318 317 317 316 317 317 317 317 317 316 315 315 315 316 317 317 317 317 317 317 317 318 319 320 320 321 321 321 321 321 321 320 320 320 319 320 320 320 319 319 319 319 320 320 320 322 323 323 324 324 324 324 323 323 322 322
323 322 319 316 316 317 319 321 323 321 319 317 316 318 319 321 320 320 319 317 315 316 317 318 318 319 319 319 318 318 317 315 315 315 315 315 316 317 316 315 315 315 316 316 316 317 317 317 317 317 319 320 320 320 320 320 320 320 320 320 320 319 319 318 318 318 317 316 316 316 316 316 317 318 320 322 322 323 322 323 325 324 324 324 323
324 323 320 319 317 316 317 318 319 319 317 317 315 315 316 317 317 316 316 316 315 313 313 314 315 317 317 317 317 317 316 316 315 314 314 313 314 315 316 316 315 315 315 316 316 317 317 317 317 318 320 321 320 319 319 318 317 317 318 318 318 318 317 317 317 316 316 316 315 315 315 315 315 316 317 318 319 321 322 323 324 324 325 325 325
326 324 322 321 320 317 317 317 317 317 316 316 315 315 314 314 314 313 314 315 315 314 312 312 313 314 315 315 315 315 317 318 317 317 316 314 312 312 314 314 314 314 314 315 315 315 316 316 317 317 318 319 318 318 318 318 318 317 318 319 320 320 320 320 319 318 317 317 316 316 316 316 316 315 315 315 316 318 320 321 322 323 325 325 325
329 326 324 322 321 320 319 318 317 317 316 316 315 315 315 314 314 314 314 314 314 314 313 312 314 316 314 313 314 316 319 320 320 320 320 319 315 312 313 314 313 313 313 314 315 315 316 316 316 317 318 318 318 319 319 320 321 321 322 323 323 323 323 323 323 322 321 320 320 320 319 319 319 318 317 317 316 316 317 319 319 321 322 324 325
331 328 326 324 322 322 320 320 319 319 318 317 316 316 315 315 315 315 315 315 315 315 314 313 315 318 318 315 315 318 321 321 322 322 322 322 320 317 317 318 318 317 316 317 317 317 318 318 319 319 319 319 320 320 321 323 323 323 323 324 323 323 323 323 324 324 324 323 323 323 323 323 322 322 321 320 319 318 318 318 318 319 320 322 323
333 331 329 327 324 323 323 322 321 321 320 320 319 318 317 316 316 316 316 316 316 315 315 314 314 317 320 320 320 321 323 324 324 325 325 324 323 322 322 322 323 322 322 321 321 321 321 322 322 322 322 322 322 322 323 324 324 323 323 322 322 321 322 322 323 324 324 324 324 324 323 323 323 322 322 322 322 321 320 319 319 319 320 321 321
333 332 331 329 327 326 325 324 323 322 321 322 321 321 320 319 319 318 318 318 318 317 317 317 316 315 317 320 324 324 325 326 325 326 326 325 324 323 324 324 325 325 324 324 324 323 324 324 324 324 324 324 324 324 324 324 323 323 322 321 321 321 321 323 324 324 323 323 322 322 322 322 322 321 322 322 322 321 321 320 320 320 320 320 321
333 332 333 331 330 329 327 327 326 325 324 323 323 322 322 321 321 321 321 321 320 320 320 319 319 317 316 317 322 325 326 326 326 325 326 326 324 324 325 325 325 325 325 325 324 324 324 324 325 325 325 324 325 324 324 323 323 323 322 322 322 322 323 324 324 323 323 322 321 320 320 321 321 321 322 321 321 320 320 320 320 320 319 320 320
333 332 332 331 332 332 330 329 328 328 327 326 326 325 324 324 324 323 323 323 322 323 323 324 323 322 319 317 319 322 325 325 325 326 327 327 326 325 325 325 326 326 325 325 325 325 325 325 325 324 324 324 324 323 323 322 322 323 322 323 324 324 324 324 324 324 324 323 321 319 319 321 321 321 320 320 320 320 320 320 319 319 319 319 318
333 332 332 331 332 333 333 332 331 331 330 329 328 328 328 327 327 326 326 326 326 327 327 328 327 325 323 320 319 321 323 324 325 327 328 328 327 327 326 326 326 326 326 326 325 325 325 325 325 324 323 323 323 322 322 322 322 323 324 324 324 324 324 325 325 325 323 321 320 319 320 320 320 319 318 318 319 318 318 318 318 318 318 318 318
333 332 333 331 331 332 333 334 333 333 332 331 330 330 330 330 330 330 329 330 330 330 330 330 329 328 326 324 323 322 323 325 327 328 328 328 327 326 326 326 325 325 325 325 325 325 324 324 324 323 323 324 324 323 322 322 323 324 324 323 323 324 324 325 324 322 320 319 319 320 320 319 318 318 318 318 318 317 316 316 316 317 317 317 317
332 331 332 331 331 330 331 332 332 334 333 332 332 331 332 332 333 332 332 332 332 333 332 332 331 329 328 327 326 326 326 327 327 328 328 328 327 326 326 325 325 325 325 324 324 324 324 324 324 324 324 324 324 323 323 322 323 323 322 322 323 323 324 323 322 320 319 319 319 319 319 318 318 318 318 318 317 317 315 315 315 316 316 316 316
330 331 331 330 330 329 330 331 331 333 333 333 333 333 333 333 333 333 333 333 333 334 333 333 332 330 330 329 329 328 328 328 328 328 328 328 327 327 326 326 326 325 325 325 324 323 323 323 323 324 324 323 323 322 322 321 322 323 322 323 323 323 323 322 320 319 319 319 319 318 318 318 318 318 317 317 316 315 314 314 315 315 314 314 314
330 330 330 330 330 330 331 332 333 333 333 334 333 334 334 333 334 334 334 334 334 334 334 334 333 332 331 330 330 330 330 329 329 329 328 328 328 327 326 325 325 324 325 325 323 323 323 322 322 322 322 322 322 321 321 321 322 323 323 323 323 323 323 321 320 320 319 319 319 318 318 317 317 317 316 315 313 312 312 311 310 309 309 308 308
331 331 331 331 331 332 333 333 334 334 333 334 334 334 335 335 335 334 335 335 335 335 335 335 334 334 333 332 332 331 331 330 330 329 329 329 328 327 326 325 324 324 324 324 324 324 324 323 321 321 322 321 322 322 322 323 323 324 324 323 323 323 321 320 320 320 318 318 318 318 317 316 316 315 314 311 308 307 306 304 303 301 301 301 302
330 330 331 332 332 332 333 333 334 334 334 334 334 334 334 334 335 335 335 335 336 336 335 335 334 334 334 334 333 332 332 331 330 330 329 329 329 327 327 326 325 324 325 325 324 325 325 324 322 322 323 322 322 322 323 324 324 324 324 323 322 321 319 319 319 319 317 317 318 317 316 315 314 312 309 304 302 301 299 298 297 297 297 298 298
329 330 330 330 331 332 332 332 333 333 333 334 334 334 333 333 333 334 334 334 335 335 335 335 335 334 334 334 334 333 333 332 331 331 330 329 329 328 328 327 327 326 326 326 326 326 326 325 324 324 324 324 323 323 324 323 323 323 323 322 321 319 319 319 319 318 316 317 318 316 314 312 310 306 301 298 297 297 296 296 296 296 297 297 296
328 329 330 330 330 330 331 331 332 332 332 333 333 333 333 333 333 333 333 333 333 334 334 333 332 333 332 332 333 333 333 333 332 331 330 330 329 329 328 328 328 327 327 327 327 327 327 327 326 325 325 325 324 325 325 323 323 323 322 321 320 319 318 318 319 318 316 317 317 315 313 308 303 299 296 296 296 296 295 295 296 296 296 296 295
328 328 328 329 330 329 330 330 331 332 332 332 332 333 333 332 332 332 332 332 332 332 332 331 331 331 331 331 331 332 332 332 331 331 331 330 330 330 329 328 329 328 327 327 327 326 326 326 326 326 327 327 326 326 325 324 323 322 321 320 320 319 318 318 318 317 316 317 316 313 309 303 297 296 295 295 295 295 295 295 295 295 295 295 295
326 327 327 328 329 329 329 330 330 330 331 331 332 332 332 332 332 332 332 332 332 331 331 331 331 331 332 332 332 332 332 331 331 331 330 330 330 329 328 328 328 327 327 326 325 324 324 325 326 326 327 327 326 325 324 323 323 322 321 321 319 318 319 318 316 316 315 315 312 309 304 299 296 295 295 295 295 295 295 295 295 295 295 295 295
323 324 326 326 327 328 328 329 329 329 330 331 331 331 332 332 332 332 332 332 332 332 331 331 331 331 331 332 333 333 333 333 331 330 329 328 329 328 327 328 327 326 327 325 324 323 324 326 326 327 327 327 326 324 323 323 322 321 321 320 320 319 319 317 315 316 314 312 308 304 300 297 295 295 295 295 295 295 295 295 295 294 294 294 294
320 320 322 323 325 326 327 328 328 328 329 329 330 330 331 331 331 331 331 331 332 332 331 331 331 331 331 332 333 334 333 333 332 331 330 328 327 327 326 327 326 326 328 325 323 324 325 327 328 327 327 325 325 324 322 321 321 320 320 319 319 319 318 315 315 315 313 309 303 299 298 296 295 296 296 295 295 295 295 295 295 294 294 294 294
316 316 318 321 324 325 326 326 326 327 327 328 329 329 330 330 331 330 330 331 331 331 331 331 331 331 331 332 332 333 332 331 331 331 330 327 326 326 326 326 326 327 328 325 324 325 327 328 327 326 325 324 324 323 322 321 320 319 319 317 317 317 316 315 314 314 313 311 303 298 297 295 294 295 295 295 295 295 295 295 294 294 293 294 294
313 315 317 319 322 323 324 325 326 326 326 327 328 329 329 329 330 330 330 330 330 330 331 330 331 330 331 331 331 331 331 331 331 330 328 326 325 328 328 327 327 329 329 327 326 326 327 327 325 324 323 323 323 322 321 320 319 318 316 315 315 315 314 313 313 312 311 310 306 301 299 294 293 294 295 294 294 295 295 295 294 294 293 293 294
310 312 314 316 319 321 324 325 326 326 326 327 328 328 329 329 329 330 330 330 330 330 330 330 330 330 330 330 330 330 330 330 330 329 328 326 326 329 329 329 329 329 329 328 327 326 325 324 323 323 323 323 322 321 320 319 318 317 315 314 313 313 312 312 311 308 306 307 307 305 302 297 294 294 294 294 293 294 295 294 294 293 293 293 293
308 309 311 314 317 320 323 325 325 326 326 327 327 328 328 329 329 329 330 330 330 330 330 330 330 330 330 330 330 329 329 328 328 327 326 325 327 329 329 330 329 329 328 327 325 324 323 322 322 322 322 322 321 319 319 318 317 316 314 312 312 311 309 308 308 305 303 304 305 304 302 298 297 296 293 293 293 294 295 294 293 293 293 293 293
306 307 309 313 316 318 321 323 325 325 326 327 327 328 328 328 329 329 329 329 330 330 330 330 330 330 330 330 330 329 328 328 327 325 324 325 327 328 328 328 328 328 327 325 323 322 322 322 321 321 320 320 320 318 318 316 314 314 313 311 310 308 306 305 304 302 301 302 302 301 299 296 295 295 293 293 293 294 295 294 293 292 293 293 293
Wind_Speed
10 7 6 8 9 8 8 8 7 9 8 7 9 10 13 14 13 13 12 12 13 14 14 15 15 15 16 17 17 16 16 16 14 15 16 15 16 16 17 17 17 17 18 19 19 19 19 19 19 19 19 19 20 20 19 19 19 19 18 18 18 18 18 18 18 18 18 19 20 21 21 20 19 19 19 19 18 18 17 17 18 18 18 18 17
12 8 10 11 10 8 8 7 6 9 7 6 9 11 13 13 12 12 13 14 15 15 15 15 15 16 16 16 17 16 16 16 14 14 14 14 15 15 16 17 17 16 17 18 18 19 19 19 18 19 19 19 20 20 19 19 19 19 19 18 18 18 18 17 17 17 18 18 19 19 20 20 20 19 19 19 18 19 19 19 19 19 18 18 18
11 11 12 12 10 8 8 6 6 9 8 7 9 12 13 13 12 13 15 16 16 15 15 16 16 16 16 16 17 16 16 16 15 14 13 13 13 14 15 17 18 16 17 18 18 19 18 18 18 18 18 19 19 19 19 19 19 19 19 18 18 18 18 18 18 18 18 19 18 18 20 20 19 18 17 17 18 18 18 19 19 18 17 17 17
11 12 13 12 11 9 9 7 8 10 9 8 10 13 14 13 13 15 16 14 15 15 15 14 15 15 15 16 16 16 16 16 16 15 15 14 14 14 14 16 17 17 17 18 18 18 18 18 18 18 18 18 18 18 18 18 19 19 19 18 18 18 18 17 17 17 17 17 16 17 18 18 18 17 17 16 17 17 17 18 18 17 17 17 16
12 12 13 13 10 9 8 8 10 11 10 9 11 14 14 14 13 14 15 13 14 15 13 13 15 15 14 15 15 15 15 15 15 16 16 16 16 15 16 17 18 18 17 18 18 18 18 18 18 17 17 18 18 18 18 18 18 18 18 18 18 18 17 16 16 16 16 15 15 16 17 17 17 16 16 17 17 18 18 18 18 18 17 17 17
12 12 14 14 10 9 8 9 10 10 11 11 13 15 15 15 14 13 14 14 14 14 13 14 15 14 14 15 14 15 15 15 15 16 16 16 16 16 17 17 17 17 17 18 18 17 17 17 17 17 17 17 17 18 18 17 17 17 17 17 17 17 16 16 16 15 15 16 17 18 18 19 18 17 16 17 17 18 18 18 18 18 17 16 16
11 13 15 14 10 9 8 9 10 11 12 12 14 15 15 15 14 13 13 15 14 13 14 15 15 14 15 15 14 14 15 15 15 15 16 16 17 17 18 17 16 17 17 17 17 16 16 16 16 16 16 16 17 17 17 17 16 16 16 16 16 16 16 16 16 16 16 17 17 18 19 19 19 17 16 17 17 17 17 17 17 17 16 16 16
12 14 16 13 11 9 8 9 11 12 12 13 14 14 15 13 12 11 13 14 13 14 14 14 15 15 14 14 14 14 14 15 14 15 16 16 16 16 17 17 16 16 16 16 16 16 16 16 15 15 15 16 16 16 17 16 16 16 16 16 16 16 16 16 16 17 17 18 17 15 17 18 18 17 16 16 15 15 15 16 17 16 15 16 16
13 14 16 14 11 10 9 11 12 12 13 13 13 14 13 11 10 12 15 14 13 15 13 13 14 14 13 12 13 14 14 14 14 15 15 15 16 15 16 16 16 15 15 15 15 16 15 15 15 15 15 15 15 15 16 16 16 16 16 16 16 16 16 16 17 17 17 17 16 15 15 16 16 15 15 15 15 15 15 16 16 16 15 15 16
14 15 15 14 12 11 11 12 13 13 13 13 13 12 11 10 10 13 15 13 11 12 11 11 11 13 13 12 13 14 14 14 14 14 14 14 14 14 15 15 15 15 15 15 15 15 15 15 14 14 14 14 14 14 15 15 16 16 16 16 15 16 16 16 16 17 16 16 16 16 16 15 15 14 13 14 14 14 15 17 14 14 15 14 15
15 16 16 14 12 11 12 13 13 13 13 12 12 10 9 9 9 13 14 11 9 10 11 10 10 11 12 12 13 14 13 13 13 14 13 14 13 14 14 15 15 15 14 14 14 14 14 13 12 12 12 12 13 14 14 15 15 15 15 15 15 15 15 16 16 16 16 15 15 15 14 15 15 14 13 14 14 14 14 14 13 12 14 14 15
17 17 16 14 13 12 12 13 13 13 12 12 12 10 9 8 8 11 13 11 9 11 11 10 10 10 11 12 12 12 12 13 13 13 13 13 13 13 14 14 14 14 13 13 13 13 13 11 11 11 12 12 13 14 14 14 14 14 14 14 14 14 15 15 16 16 16 15 15 15 14 16 16 13 13 13 13 14 13 13 13 12 12 12 14
19 18 16 15 13 12 12 12 13 12 12 12 11 9 8 6 7 9 12 11 10 11 10 9 9 9 11 10 11 12 11 12 12 12 12 12 12 12 13 13 13 13 12 12 12 12 11 10 11 11 11 12 13 13 13 13 13 14 14 14 15 14 14 15 15 15 15 15 16 16 15 16 16 13 13 12 12 14 13 14 13 12 12 11 13
20 19 16 15 14 13 11 11 12 12 11 11 10 8 6 5 7 8 10 11 11 9 8 8 7 8 10 9 11 12 11 11 11 11 11 11 11 11 12 13 13 12 11 11 11 11 10 9 11 11 10 11 12 12 12 12 13 13 14 14 14 14 15 15 15 15 15 14 15 14 13 14 14 13 13 13 13 13 12 13 12 12 12 10 12
20 20 18 16 14 14 12 11 11 11 11 10 9 8 6 5 6 5 7 10 11 8 6 7 6 7 8 9 11 11 11 11 10 11 11 11 11 11 11 12 12 11 10 10 10 10 9 9 10 10 10 11 11 11 11 12 12 12 13 13 14 14 14 15 15 14 14 13 12 12 11 12 12 12 13 12 13 13 12 12 11 12 11 9 11
19 19 18 17 15 14 14 13 11 11 10 10 10 9 6 5 5 4 6 10 10 9 6 7 6 7 7 9 11 11 11 10 10 11 11 11 10 10 10 11 10 10 10 9 9 8 8 7 8 9 9 10 10 10 10 11 11 12 12 13 13 14 14 14 14 14 13 12 10 9 10 12 12 11 12 11 12 13 12 12 12 12 11 10 11
18 19 19 17 16 14 14 15 13 12 10 10 10 10 7 5 4 4 7 10 10 9 7 6 7 8 8 8 9 11 11 9 10 10 10 10 10 10 9 9 10 10 9 8 8 7 7 7 7 7 7 8 9 9 10 10 10 11 11 12 12 13 14 14 14 14 13 11 10 9 10 12 12 10 11 12 12 12 12 11 12 13 12 11 11
17 18 18 17 17 15 15 15 15 14 12 11 10 10 8 5 4 3 7 10 11 10 9 7 7 7 7 7 7 8 8 8 8 8 8 8 10 10 9 9 9 9 8 7 7 6 7 7 5 5 5 7 7 8 9 9 10 10 10 10 11 11 12 13 14 13 13 11 9 8 8 10 10 9 10 12 12 11 11 11 12 12 12 11 11
16 17 17 17 17 16 16 16 16 15 14 12 11 9 8 6 4 3 6 10 10 10 9 7 6 5 6 5 4 5 6 7 7 7 8 8 8 9 8 8 7 7 7 7 7 7 7 6 4 3 4 5 6 7 7 8 8 9 9 10 10 10 11 12 12 12 12 11 10 8 8 8 7 8 10 11 11 9 9 10 10 11 12 11 10
16 16 16 17 17 17 16 15 16 16 15 14 11 9 8 6 4 2 6 9 9 8 8 7 6 6 5 5 4 4 6 6 7 8 8 7 6 6 6 6 6 6 7 7 7 7 7 5 4 2 2 3 4 5 6 7 7 8 9 9 10 10 11 11 11 11 11 11 10 9 9 8 6 8 10 10 11 9 9 11 11 12 12 10 10
15 17 17 18 17 17 16 15 15 16 15 14 12 11 10 8 6 4 5 9 9 7 8 8 7 6 6 5 4 4 5 6 8 7 6 6 6 6 5 5 6 6 7 7 7 7 6 4 3 2 2 2 3 4 5 6 6 7 8 9 9 10 10 11 11 11 11 11 11 10 9 8 6 8 11 11 13 11 10 12 14 13 11 10 10
15 18 19 19 18 17 18 16 15 16 14 13 13 12 12 10 8 6 6 8 9 7 7 8 8 7 7 6 5 4 4 5 6 5 4 5 5 6 5 5 6 6 6 6 7 6 5 4 3 2 2 2 2 3 4 5 6 7 8 8 9 9 10 11 11 11 12 12 12 11 10 10 8 8 11 13 14 14 12 14 16 14 11 10 9
17 19 20 21 20 19 19 18 16 16 14 13 13 13 13 11 11 9 7 9 10 9 8 8 8 8 8 7 6 4 4 5 5 4 4 4 4 4 5 5 5 5 5 5 5 5 4 4 3 2 2 2 2 2 3 5 6 6 7 8 9 9 10 11 11 12 13 14 13 13 12 12 11 10 11 13 14 14 14 15 16 15 15 11 8
21 21 21 22 22 21 21 20 18 17 16 14 13 13 13 12 12 11 9 9 10 10 9 8 9 9 9 8 6 5 5 4 4 4 4 4 3 3 3 4 4 4 4 4 4 3 3 3 2 1 1 1 2 3 4 6 7 7 8 9 9 10 11 11 12 13 14 15 15 15 14 14 13 12 12 13 14 14 14 14 15 15 15 13 10
20 20 22 23 22 22 22 21 20 19 17 15 14 14 14 14 13 12 11 10 10 10 10 9 9 9 9 8 7 6 5 5 4 4 4 4 3 3 3 2 2 2 3 3 3 3 3 2 2 1 1 1 3 5 6 7 8 8 9 10 10 11 12 12 13 13 14 15 15 15 15 15 15 14 14 13 14 15 15 15 16 15 14 13 14
19 21 23 23 22 23 23 22 21 20 19 17 16 15 14 14 13 13 12 11 11 10 10 10 9 10 10 9 8 7 6 6 5 5 4 4 3 3 3 2 1 1 2 2 2 3 3 2 2 2 2 3 4 6 7 9 9 10 10 11 12 13 13 13 14 14 14 14 14 14 15 15 15 15 16 16 16 16 15 16 18 17 15 15 16
22 23 23 23 22 22 23 22 21 21 20 18 17 16 15 15 14 13 12 12 11 10 10 10 10 9 9 9 9 8 8 7 6 5 4 4 3 3 3 3 2 2 2 2 3 3 3 3 3 3 3 4 5 6 8 9 11 11 11 12 13 14 14 15 15 15 14 14 14 14 14 15 15 15 16 17 17 17 17 17 19 19 18 18 18
23 24 24 23 23 23 23 22 22 21 20 19 19 18 17 16 14 14 13 12 12 11 11 10 10 9 9 9 9 9 8 7 5 4 3 3 2 2 2 2 1 2 2 3 3 3 3 2 3 3 4 5 6 6 8 9 11 12 12 13 14 15 16 17 17 16 15 15 14 14 14 15 15 16 16 17 17 17 18 18 19 20 20 20 20
23 25 25 25 24 23 23 23 22 21 21 20 20 19 18 17 16 15 14 13 13 12 11 11 10 10 9 10 10 9 8 6 5 3 2 1 1 1 1 1 1 2 2 2 2 1 1 2 3 3 4 5 6 6 7 9 11 13 14 15 16 17 18 18 18 17 15 15 14 14 14 15 15 16 17 18 18 18 18 19 19 20 21 21 21
23 24 24 26 26 24 24 24 23 22 21 21 20 20 19 18 17 17 15 15 14 13 12 12 11 11 11 10 10 9 8 6 5 4 3 1 1 0 1 1 2 3 3 2 2 2 2 2 3 4 5 5 6 7 8 10 12 14 15 17 18 19 18 17 18 17 15 14 14 14 14 14 15 16 17 17 18 18 18 18 19 19 20 21 22
24 23 23 25 26 26 26 25 24 23 22 22 21 20 19 19 18 17 16 16 15 14 13 13 12 13 12 12 11 10 8 7 5 4 3 3 2 1 1 1 2 2 3 2 2 2 2 3 3 5 6 7 8 8 9 12 13 13 15 17 18 17 17 17 17 16 15 16 16 17 16 16 16 16 16 15 16 16 17 18 18 18 19 19 20
25 25 23 23 24 26 27 26 26 25 24 23 22 21 20 20 19 18 17 16 15 14 14 13 13 13 13 13 13 11 10 8 6 5 4 3 3 2 2 2 2 3 3 3 3 4 3 4 4 5 7 9 9 9 11 13 14 13 14 16 16 16 16 17 17 17 17 18 19 19 18 17 16 15 15 14 15 16 16 16 16 16 17 17 18
26 26 25 24 24 25 27 28 27 26 25 25 24 23 22 21 20 18 18 17 16 15 15 14 14 14 14 14 14 13 11 9 7 6 4 4 3 3 3 3 3 4 4 4 5 5 5 6 6 7 9 11 12 12 14 15 15 15 16 16 17 17 17 17 18 18 19 20 20 19 17 16 14 13 14 14 15 15 15 15 15 15 15 16 15
26 26 27 26 25 24 26 27 28 28 27 26 26 24 23 21 20 19 19 18 17 16 16 15 14 14 15 15 14 14 13 10 9 7 6 5 4 4 4 4 4 5 6 6 6 7 7 8 9 10 13 13 13 14 15 15 15 16 17 17 17 17 17 17 17 18 19 19 18 15 13 12 12 13 14 14 14 15 15 15 15 16 16 15 15
27 27 28 28 27 25 24 24 26 29 29 28 28 26 24 23 21 20 20 19 18 17 16 16 15 14 15 15 15 14 13 11 10 9 8 7 6 6 6 6 6 7 8 8 8 9 9 10 12 14 15 13 12 13 14 14 15 16 15 15 15 15 16 15 15 16 16 15 13 12 12 12 13 14 15 14 14 15 16 16 16 16 16 16 15
29 29 29 28 28 27 27 25 25 29 30 30 29 27 26 24 23 21 21 20 19 19 17 16 16 15 15 15 14 14 13 12 11 10 9 9 8 8 8 8 8 9 9 8 9 10 11 13 13 13 13 13 13 14 15 15 16 15 14 14 15 15 13 12 13 13 12 13 14 12 13 12 13 15 14 13 14 17 18 18 17 16 16 16 17
31 31 30 29 29 29 30 28 28 28 29 30 30 28 28 26 25 23 22 22 22 21 19 17 17 17 17 15 15 14 13 12 11 11 11 10 10 9 9 9 9 9 9 10 11 12 12 14 14 13 13 14 14 15 17 16 15 15 14 15 14 12 10 11 12 10 9 14 15 12 13 13 14 14 13 14 17 19 19 18 17 17 17 18 19
31 32 32 31 31 30 31 30 29 29 29 30 30 30 29 28 26 24 23 23 23 22 21 20 19 18 18 17 16 16 15 14 13 13 13 12 12 11 11 10 11 12 12 12 11 10 11 12 13 12 12 13 13 14 16 15 15 16 16 16 13 9 9 10 10 6 9 16 14 11 13 14 14 14 14 17 19 19 18 18 18 17 17 17 17
30 31 31 31 31 31 30 30 30 30 30 30 30 30 30 30 29 27 26 25 25 24 23 23 21 20 20 19 19 18 17 16 15 15 14 14 14 14 13 11 11 12 11 11 11 11 11 10 10 9 9 10 11 13 14 15 16 17 17 15 11 10 9 8 6 4 10 15 11 10 13 14 14 15 17 18 18 18 18 18 18 17 17 17 17
29 29 30 31 31 31 31 31 32 32 31 31 30 30 30 31 30 29 29 28 28 26 25 25 23 22 22 21 21 20 19 18 17 17 17 17 16 15 14 12 11 10 11 10 10 11 11 11 11 9 10 10 11 12 13 14 15 16 15 12 10 10 7 5 3 4 11 13 7 10 15 15 15 16 17 17 17 18 17 17 17 17 18 18 18
29 29 30 32 33 33 33 34 34 33 33 33 32 31 31 31 30 31 31 29 28 27 26 26 25 25 23 22 23 22 21 20 19 19 19 19 18 18 17 16 14 13 14 14 14 14 14 14 14 12 11 11 11 11 12 12 11 12 11 9 9 9 7 3 5 3 13 9 4 11 15 16 16 16 17 17 17 17 17 17 17 18 18 19 20
31 33 34 35 35 34 35 36 36 35 35 35 34 33 33 32 31 31 30 29 29 28 28 28 27 26 25 24 24 23 22 21 20 20 21 21 20 20 20 19 17 16 16 17 17 17 17 17 17 15 13 13 13 13 13 10 6 7 7 7 6 6 7 1 8 5 13 3 4 13 15 15 15 16 18 18 17 17 18 18 18 18 18 19 20
34 35 35 35 35 35 37 37 36 37 37 37 36 36 35 34 32 31 30 29 29 29 28 28 27 27 27 26 25 23 22 22 21 22 22 21 20 20 21 20 19 18 17 17 17 17 17 17 17 16 15 14 13 12 11 7 3 5 5 4 3 4 5 3 4 13 8 2 7 14 13 14 15 17 19 18 18 18 19 19 18 19 19 19 20
33 33 34 36 37 38 39 39 38 38 38 38 38 37 36 34 33 32 30 29 28 28 27 27 28 28 28 27 26 25 24 22 22 22 22 21 20 20 21 21 19 17 17 17 17 15 15 15 14 13 12 12 11 9 8 3 2 2 2 1 1 3 2 0 9 14 3 2 12 14 13 15 17 19 19 17 19 18 18 18 18 19 19 19 19
33 34 35 38 40 41 41 40 39 39 39 40 39 38 35 34 32 29 27 26 26 26 26 27 28 28 27 27 27 26 25 25 23 23 22 21 23 24 22 21 20 18 18 17 16 14 14 15 14 13 12 11 9 7 5 2 2 2 1 2 1 1 1 3 9 7 5 12 14 13 14 16 19 20 18 18 19 18 17 17 18 19 19 19 19
34 36 36 38 40 41 40 40 40 40 40 40 39 38 37 35 33 31 29 27 26 27 28 29 28 27 26 25 25 24 23 24 23 23 22 21 22 23 22 22 21 20 19 18 15 14 15 15 14 13 12 10 8 6 5 4 3 3 3 4 3 2 1 3 4 4 11 15 11 11 13 17 20 18 17 19 19 18 18 17 18 19 19 19 20
36 35 35 36 37 38 38 39 40 40 40 39 39 38 38 36 35 35 33 31 30 30 30 30 28 27 25 24 23 22 21 22 23 23 23 22 20 19 19 19 19 18 18 19 18 17 15 14 12 10 10 8 8 8 7 5 4 5 4 4 4 3 1 1 0 2 7 9 11 13 12 15 18 14 15 18 18 18 18 19 20 20 21 21 21
34 33 33 34 35 36 38 38 39 39 39 38 38 39 39 38 37 36 35 34 33 32 31 30 29 28 26 25 24 22 22 22 23 23 24 23 22 21 20 19 19 19 18 19 20 17 12 10 10 10 9 7 8 8 7 6 5 5 4 3 3 2 0 0 2 2 1 4 9 10 11 16 17 13 12 15 17 16 17 20 20 21 22 21 21
30 30 32 33 34 35 36 36 37 38 38 37 38 39 39 39 38 37 35 35 34 33 31 28 28 26 26 25 24 23 23 23 24 25 24 22 20 21 22 22 19 18 17 16 15 12 8 7 8 9 9 8 8 6 5 5 5 4 3 2 2 1 1 2 3 2 2 3 3 5 9 16 17 15 13 14 16 13 12 16 18 19 20 19 21
27 28 30 31 32 33 34 35 36 37 37 37 38 38 39 39 39 38 36 35 33 32 30 27 26 25 25 25 24 24 23 23 24 23 20 19 18 17 19 19 16 15 16 13 11 8 7 7 7 8 10 8 7 5 4 4 4 4 4 3 3 3 3 4 4 2 2 4 4 5 6 8 11 13 15 16 16 11 9 12 16 17 17 16 19
24 25 28 30 31 32 33 35 36 36 36 36 37 38 39 39 39 39 37 36 34 32 31 28 26 26 26 26 25 24 23 23 22 19 16 18 18 17 17 16 13 13 14 12 9 7 7 9 9 10 9 7 7 6 5 6 6 7 7 7 6 5 5 5 5 3 3 3 3 5 6 6 9 12 16 17 15 11 8 13 17 16 13 14 17
Wind_Direction
154 149 131 123 116 115 120 119 119 119 102 101 108 106 109 102 97 93 86 78 76 81 80 79 79 79 81 81 84 88 89 91 91 83 79 80 83 84 82 81 81 79 76 75 78 80 82 83 82 80 80 81 81 80 80 79 79 78 79 79 79 79 77 77 76 76 74 71 68 66 63 61 58 56 56 56 56 57 57 54 54 54 52 50 50
149 144 126 119 113 109 115 112 123 127 112 111 111 109 109 100 99 95 87 81 78 79 81 82 81 80 80 83 84 84 85 89 95 93 84 78 79 81 81 81 80 76 74 78 80 81 83 83 82 81 79 79 79 78 78 77 77 77 78 78 77 76 75 73 71 69 67 65 64 65 64 61 59 57 55 54 55 58 58 54 56 58 56 53 52
142 140 128 120 120 117 125 123 126 131 123 119 113 111 108 100 99 95 91 85 81 80 83 84 83 83 81 83 85 85 86 86 90 93 92 89 86 84 82 80 79 77 76 79 81 83 83 82 82 81 79 78 77 77 76 75 76 76 77 77 76 73 70 67 65 63 63 63 61 61 64 64 58 55 54 53 53 54 56 54 56 58 56 51 51
143 140 132 128 131 132 139 137 129 134 132 123 116 114 109 101 94 91 86 74 78 88 88 85 83 85 85 85 85 85 86 87 87 89 89 89 91 90 86 81 83 83 81 81 82 83 82 81 82 81 79 77 75 75 75 76 78 78 78 75 72 68 65 62 61 60 60 60 59 60 64 67 59 52 53 54 50 48 52 54 54 55 52 49 52
147 142 138 137 138 141 144 136 133 136 131 122 118 117 109 99 90 88 81 67 83 94 89 86 86 88 87 84 85 85 86 88 88 87 86 86 89 91 90 86 86 85 82 82 83 84 84 84 82 82 80 76 75 74 75 77 80 79 76 71 66 63 61 60 59 57 57 57 58 60 63 65 61 54 53 53 50 49 53 55 53 51 50 50 53
147 143 142 142 143 142 138 135 136 132 126 122 119 115 105 97 94 90 82 79 90 93 88 92 93 89 85 84 85 86 86 87 88 88 87 88 88 90 91 90 88 85 83 82 83 85 86 85 84 83 78 76 77 77 77 77 78 76 71 67 63 61 60 60 59 56 54 54 55 59 61 64 63 56 52 53 52 54 55 53 50 49 50 49 49
145 143 146 146 144 139 134 136 135 129 125 123 121 115 107 104 102 97 92 92 94 90 90 96 99 91 86 88 89 88 88 87 88 88 87 88 89 91 93 91 89 85 83 83 85 86 86 87 85 82 78 78 79 78 79 78 76 72 69 66 64 63 62 59 56 54 50 51 55 59 63 65 63 57 55 55 55 56 54 50 48 47 49 47 48
143 143 150 149 142 134 132 134 130 128 125 122 121 117 114 113 107 101 99 98 96 94 95 98 99 95 91 92 92 92 91 90 88 87 86 87 89 91 93 92 88 84 84 82 84 87 88 87 85 82 80 79 77 74 76 76 74 70 68 65 64 62 58 55 51 49 47 50 56 61 65 65 62 60 59 57 56 53 50 50 49 51 50 47 49
143 145 151 149 141 131 130 133 129 128 126 124 120 117 118 112 102 101 102 101 100 98 100 99 97 97 100 100 98 97 92 90 90 90 89 89 91 92 94 94 89 85 85 83 81 84 85 84 83 82 81 79 74 71 74 74 73 70 68 64 61 57 53 52 49 47 49 52 56 60 63 62 59 60 58 54 53 48 51 54 52 52 46 42 45
144 147 150 146 138 129 131 134 129 128 131 128 120 119 120 108 100 103 104 106 105 103 104 101 99 100 105 102 97 98 97 96 96 96 94 92 93 96 99 98 94 90 88 86 84 85 85 85 85 84 82 79 74 73 75 75 73 71 67 63 59 55 55 52 49 49 53 59 63 65 63 61 56 55 54 51 49 48 56 55 45 45 42 39 41
148 150 150 145 139 131 131 134 132 132 131 128 125 126 123 108 101 108 111 111 109 110 112 108 106 107 109 104 97 98 99 99 98 98 96 94 92 95 102 102 99 95 91 88 86 86 86 88 87 85 82 78 76 75 76 76 74 70 65 62 58 57 57 52 51 54 58 63 67 70 68 64 59 55 52 51 50 48 52 43 33 42 42 41 42
152 155 153 146 142 139 136 134 135 137 133 129 133 129 120 111 104 115 117 115 112 111 115 114 108 110 112 108 103 102 100 100 99 98 97 96 94 95 101 104 102 97 92 90 87 86 88 90 88 83 80 77 76 76 75 74 72 67 64 62 59 57 56 53 53 55 57 59 62 69 72 67 60 54 50 50 49 44 44 36 35 43 39 41 41
155 159 157 150 148 149 145 140 138 139 137 133 138 132 122 117 109 120 125 121 117 118 123 120 114 117 116 110 107 106 105 105 102 98 97 97 96 98 101 104 105 101 96 93 90 87 87 90 88 84 81 77 75 74 72 70 68 65 62 60 59 57 55 53 52 54 55 60 65 68 71 66 57 48 46 48 44 40 41 37 37 37 35 44 37
159 162 160 158 156 155 152 150 147 142 140 139 140 136 129 121 112 118 132 128 120 128 135 123 116 114 110 101 104 107 105 104 102 100 99 99 96 97 102 105 106 104 98 95 93 87 86 90 87 83 79 75 72 71 69 66 64 61 59 57 58 56 54 52 52 52 54 64 69 68 66 63 54 43 44 45 39 35 34 33 33 33 35 41 31
163 165 164 165 164 162 162 164 163 152 146 146 141 138 136 126 119 110 130 136 127 128 128 122 119 112 109 106 109 109 105 104 102 99 98 99 94 93 100 103 103 103 100 95 95 91 88 92 87 81 76 71 70 69 65 63 60 57 55 54 54 53 53 51 51 51 53 60 63 66 67 62 52 39 43 42 37 35 30 28 26 28 30 27 19
167 170 169 170 171 171 171 174 178 169 155 153 149 147 151 138 129 107 121 135 132 130 130 133 134 130 122 114 115 113 109 104 105 105 103 102 96 94 99 102 101 104 103 96 95 93 92 94 86 78 73 69 67 65 62 60 56 53 51 50 50 50 50 48 49 48 48 50 52 61 61 56 49 40 43 35 28 29 26 26 24 21 19 16 13
170 174 175 175 176 176 174 176 181 182 174 166 166 161 161 155 140 117 129 139 140 142 148 150 139 137 133 122 119 120 120 115 118 120 115 114 106 98 97 102 104 104 101 100 101 101 105 103 88 75 67 63 61 59 56 54 50 48 46 45 46 46 47 45 45 45 44 44 48 59 54 51 50 44 37 24 20 23 24 27 23 18 12 9 8
172 177 179 179 181 181 179 180 181 184 182 178 180 172 164 169 161 139 153 156 157 159 164 160 146 138 135 133 122 120 125 120 125 123 113 113 106 100 96 99 103 105 108 110 111 114 121 118 100 79 61 54 49 48 47 45 42 41 41 41 42 43 43 43 43 42 42 41 46 54 47 47 51 38 26 19 21 23 21 24 14 9 6 358 356
173 179 180 182 184 184 186 184 183 184 182 182 186 179 171 183 185 172 177 172 167 174 177 168 164 156 146 154 141 120 122 116 122 119 109 104 102 108 107 104 106 111 115 111 113 126 134 128 117 94 57 46 41 41 40 39 37 37 37 36 37 37 37 37 38 39 39 39 39 39 32 37 43 19 9 10 13 10 359 7 4 360 2 353 349
175 181 180 183 184 184 187 182 180 183 182 185 189 183 179 188 195 182 184 182 172 178 188 183 180 176 167 171 168 134 121 115 122 120 109 94 92 112 116 110 109 110 109 108 118 132 137 134 132 114 62 41 36 38 37 37 34 33 33 31 32 30 28 27 28 30 31 33 32 31 26 27 33 8 359 357 359 353 336 345 349 351 2 358 352
179 183 182 183 183 182 184 178 173 176 179 186 191 189 189 191 194 184 183 190 181 178 190 193 191 184 178 178 173 144 121 116 123 122 105 86 82 96 102 98 99 104 110 117 125 133 140 142 137 118 82 54 45 41 34 29 26 27 26 26 26 22 20 17 16 18 17 20 20 20 18 14 21 6 353 347 347 346 331 335 340 343 360 1 351
182 183 187 186 184 182 183 180 172 173 178 184 190 193 196 197 196 192 187 189 188 189 189 190 193 188 186 184 177 157 130 124 128 127 110 93 86 91 94 97 102 108 117 125 131 137 140 133 125 114 96 84 66 44 30 20 14 12 13 14 14 12 9 6 4 5 3 3 2 2 2 357 358 353 346 341 340 344 336 335 337 333 341 350 344
185 185 188 188 187 184 184 184 178 177 180 183 189 193 196 196 192 193 194 187 188 193 191 186 188 187 187 185 178 166 146 137 136 134 122 109 100 99 101 109 117 122 130 134 133 133 128 121 118 113 97 82 59 29 13 1 359 355 356 357 358 358 355 355 353 352 350 348 348 347 347 344 342 340 338 336 335 339 337 335 334 324 325 332 328
189 189 188 189 191 188 187 186 184 183 182 182 187 191 192 193 192 194 196 190 188 189 191 189 188 187 186 184 181 173 162 155 147 143 134 125 119 114 112 117 124 134 144 144 141 140 134 138 137 120 96 47 359 355 352 347 346 343 345 344 344 343 341 343 341 341 340 337 337 336 335 334 333 332 329 329 329 328 326 327 328 320 316 316 308
191 191 191 192 192 191 191 189 188 188 186 184 184 188 192 195 196 196 195 193 190 188 190 192 191 191 189 188 188 183 177 168 160 156 149 144 144 142 140 135 133 151 161 159 161 168 169 179 197 210 258 331 334 342 344 341 339 336 338 338 337 337 335 335 334 336 337 334 333 331 330 329 327 327 323 321 319 318 318 320 321 317 310 305 302
197 197 196 195 194 194 194 192 191 190 190 189 185 187 190 194 195 192 193 193 192 191 191 192 193 193 193 194 192 189 182 170 163 158 154 153 161 167 172 174 173 186 199 215 209 204 208 214 234 252 275 310 328 336 339 339 342 343 344 344 344 344 342 340 340 341 339 337 335 332 330 329 327 326 324 321 318 316 315 314 312 313 309 305 308
204 204 202 199 199 196 196 196 195 194 193 192 190 190 191 194 193 192 192 193 196 195 193 192 192 193 194 194 191 189 183 174 166 157 150 149 165 184 189 200 217 236 247 263 257 248 248 250 264 280 293 308 324 333 341 349 354 356 356 357 357 355 352 348 345 343 340 337 334 334 331 330 328 326 324 322 321 318 314 312 310 311 311 309 312
207 209 208 205 204 201 200 199 199 198 197 195 194 195 197 197 196 196 196 196 200 200 198 196 194 196 194 193 190 189 188 184 178 167 158 142 154 177 179 204 241 262 276 290 285 274 278 293 304 310 314 319 331 338 348 357 0 1 360 355 351 348 347 345 342 337 334 334 332 332 331 330 328 326 325 323 321 320 317 314 313 313 313 313 314
209 211 211 211 209 206 205 204 204 203 201 200 199 198 200 202 202 203 201 201 203 202 202 202 201 202 201 200 198 198 200 200 197 197 189 144 129 131 114 82 20 355 355 6 359 356 342 346 345 338 334 332 338 342 348 357 359 356 346 336 331 327 327 330 331 329 328 329 330 329 328 328 328 327 325 323 321 321 320 318 316 315 314 314 315
211 213 213 214 213 211 210 209 209 208 207 206 205 203 203 205 207 208 207 207 208 206 206 207 210 211 212 212 211 214 218 218 218 220 228 235 235 115 80 49 23 21 29 33 29 33 15 4 359 350 344 341 340 339 339 336 334 329 323 320 319 318 318 320 323 325 325 326 327 325 322 322 325 326 324 321 321 320 321 321 319 317 314 313 314
214 215 214 215 215 215 215 215 214 213 213 212 211 210 209 210 211 212 212 213 213 212 212 214 216 219 222 222 222 224 226 230 228 231 245 249 259 282 291 341 13 11 5 360 351 344 335 340 344 341 338 337 338 339 333 322 317 317 318 319 318 320 324 325 323 325 328 330 329 325 321 318 320 325 328 327 326 325 325 321 318 314 313 314 313
217 218 218 217 216 217 218 218 218 217 217 218 218 216 216 216 216 217 218 218 218 218 219 221 223 226 227 227 229 229 230 232 230 237 248 250 264 274 280 307 328 323 319 318 315 310 313 321 323 328 332 333 333 333 323 312 313 319 321 319 319 323 327 326 326 328 329 331 331 329 327 324 326 332 337 339 338 338 337 331 326 321 318 318 317
219 221 222 221 217 217 219 221 221 221 220 221 223 222 223 222 222 222 223 224 222 223 225 228 231 232 233 233 234 234 235 235 233 236 241 248 260 266 282 305 316 307 297 299 302 297 301 306 309 317 320 318 316 313 303 298 306 315 315 312 314 321 326 326 327 326 326 327 327 328 330 333 340 348 350 349 349 350 351 350 346 341 335 331 330
220 222 224 225 222 219 219 222 222 224 224 224 225 226 226 227 227 227 227 228 226 227 230 232 234 234 236 237 236 238 239 238 236 235 241 250 254 267 280 292 305 302 295 296 294 294 296 297 299 301 301 299 298 301 299 297 305 313 315 312 310 317 324 325 325 326 327 329 331 335 343 353 4 8 3 358 357 0 1 359 356 354 352 347 347
220 221 224 226 226 225 222 222 224 226 226 226 227 228 229 230 229 230 230 230 229 230 232 233 234 234 235 236 237 238 238 239 237 237 246 252 258 268 275 280 285 283 284 286 285 288 289 287 290 289 286 283 288 300 305 307 310 314 317 314 314 320 325 326 329 336 340 347 355 2 9 15 18 13 6 1 359 360 356 353 351 352 353 352 349
220 222 225 226 228 230 227 225 226 229 228 228 229 230 231 231 231 232 233 235 235 236 236 236 236 235 233 234 235 235 235 237 239 243 247 250 259 265 271 275 271 267 272 278 281 284 286 286 288 286 283 286 294 299 301 303 306 313 316 315 321 327 331 337 344 349 1 13 13 14 16 19 16 7 1 357 351 347 345 344 344 344 345 342 338
223 224 226 226 229 232 233 232 229 230 231 231 231 231 232 233 233 233 234 237 239 240 241 240 238 237 235 234 234 233 233 236 241 245 247 249 251 255 265 264 259 266 276 280 282 284 286 288 288 286 286 293 298 294 293 295 301 309 314 319 328 333 336 347 350 355 17 17 10 13 20 17 7 359 354 349 342 340 341 342 341 340 339 336 334
228 229 229 229 231 235 237 238 235 233 233 234 233 233 234 235 236 235 235 237 240 242 242 242 241 240 239 239 238 236 234 238 244 245 248 248 244 256 273 266 259 268 277 278 275 278 288 290 286 281 281 290 294 292 292 295 301 305 311 322 333 333 332 340 345 5 21 9 7 20 20 9 359 352 346 343 345 348 349 349 348 347 346 345 345
230 231 232 232 234 236 237 238 238 236 236 236 235 234 234 235 237 237 237 239 241 242 242 243 243 242 243 242 241 241 238 240 244 245 249 245 241 257 274 272 264 263 269 272 265 267 283 293 290 280 280 286 288 293 296 300 302 301 308 322 332 332 332 340 349 34 15 0 8 19 8 1 354 346 345 351 357 359 358 358 359 359 0 2 3
230 231 232 232 233 233 234 235 236 236 236 235 234 233 232 233 234 236 237 238 240 241 243 244 245 245 246 245 243 243 240 240 242 244 247 244 240 247 260 270 267 259 261 267 271 272 276 281 281 277 280 284 287 296 303 306 303 303 312 321 330 337 344 358 50 65 3 357 13 7 357 354 350 348 354 4 6 5 5 6 7 8 10 14 16
230 230 231 232 232 232 231 233 235 234 233 232 231 230 229 229 230 233 235 237 239 241 243 245 247 248 248 248 247 245 244 242 242 244 245 244 241 240 250 264 264 260 262 266 275 277 274 274 271 269 279 290 296 302 311 316 311 311 320 324 335 350 359 24 135 55 353 356 19 355 350 352 353 359 7 10 10 9 11 11 14 17 18 21 22
228 228 230 231 232 231 230 233 234 232 232 232 230 230 230 229 229 231 234 236 239 241 243 246 247 246 246 246 246 245 246 244 243 245 245 244 243 240 246 256 257 259 262 264 270 272 271 272 269 267 275 286 293 299 310 317 312 313 319 320 338 360 354 135 169 338 349 1 354 347 349 358 4 9 11 12 13 14 15 18 23 26 26 25 23
230 229 229 230 231 230 231 231 231 231 233 232 231 231 232 233 233 234 235 236 240 243 245 248 248 246 246 245 245 244 244 244 244 244 243 242 242 242 246 253 257 259 258 261 265 265 263 265 267 269 273 278 285 294 302 307 297 316 333 326 339 353 345 164 223 328 347 192 330 347 355 5 11 11 11 14 17 19 22 27 32 31 28 25 22
229 227 227 229 229 230 231 230 229 230 232 232 233 234 234 236 237 239 239 240 243 246 247 248 247 246 246 246 246 245 242 242 243 243 244 245 246 248 250 253 255 256 256 257 257 256 256 259 264 267 265 267 276 285 287 286 275 311 357 312 330 345 332 45 322 328 347 308 336 353 3 8 12 10 13 16 19 23 28 34 35 31 27 24 21
226 226 226 228 229 230 230 229 229 229 231 232 233 232 232 233 234 233 234 236 237 239 240 240 241 242 243 245 246 245 242 237 238 245 249 250 249 248 248 249 248 248 250 249 248 251 256 262 265 259 252 254 265 270 255 236 226 211 190 225 286 332 267 345 336 320 311 331 347 6 6 8 9 9 14 17 20 24 28 35 34 29 26 23 20
227 229 230 231 230 230 230 229 229 229 230 230 230 229 227 227 225 223 222 223 224 227 231 234 235 237 240 243 243 243 242 238 239 246 252 254 248 240 242 245 245 245 245 241 238 244 255 267 271 259 249 246 246 238 217 209 202 185 181 201 231 252 256 345 348 308 315 330 355 13 10 9 7 11 16 15 19 26 29 29 28 26 24 21 19
232 233 232 232 230 229 230 230 230 229 229 228 227 226 224 223 222 222 221 221 222 227 232 235 236 238 239 239 239 239 239 240 241 244 250 253 242 234 237 240 241 243 241 236 235 242 252 264 265 250 246 241 226 214 199 193 186 173 179 194 202 211 235 336 279 291 315 323 340 355 5 3 3 11 15 14 18 25 29 25 21 21 20 19 15
235 233 232 231 231 231 231 230 230 229 228 227 226 224 222 220 221 222 223 223 224 229 232 234 236 237 236 236 236 237 237 238 239 243 251 248 236 235 237 237 243 244 242 240 239 241 245 250 248 238 234 222 205 201 187 183 186 179 190 191 165 169 256 107 180 195 230 290 321 336 343 344 354 9 11 12 17 24 27 21 17 15 14 13 9
237 234 234 234 233 233 231 230 229 229 228 226 225 224 223 221 221 221 222 224 227 231 233 234 233 232 232 232 234 235 235 236 237 244 249 240 233 239 236 234 244 246 245 242 231 227 232 239 240 223 209 190 183 191 182 180 192 199 210 196 154 161 126 149 173 182 193 226 284 306 319 332 348 5 8 6 13 28 28 17 13 11 10 8 4
241 238 237 236 234 233 231 229 229 228 228 227 225 224 223 222 222 221 222 224 226 229 230 230 228 226 226 227 228 230 233 237 241 242 237 225 229 241 235 232 240 242 237 225 211 221 235 236 224 195 186 182 182 193 207 215 223 230 236 227 218 214 171 161 178 191 197 212 252 276 292 316 326 344 1 2 8 28 32 16 11 8 8 4 360
242 239 236 234 233 232 230 229 230 229 227 226 225 225 224 222 222 222 223 224 224 225 225 224 223 221 221 223 226 231 235 237 239 236 223 216 226 236 235 235 234 225 216 207 218 249 236 218 207 190 187 190 200 224 242 242 237 231 233 231 217 194 172 167 176 178 175 195 248 273 284 306 297 313 345 357 5 22 29 13 8 6 3 358 355